TimeEDT,TemperatureF,Dew PointF,Humidity,Sea Level PressureIn,VisibilityMPH,Wind Direction,Wind SpeedMPH,Gust SpeedMPH,PrecipitationIn,Events,Conditions,WindDirDegrees,DateUTC
12:51 AM,42.1,26.1,53,30.16,10.0,NW,9.2,-,N/A,,Mostly Cloudy,310,2013-03-29 04:51:00
1:51 AM,41.0,26.1,55,30.17,10.0,WNW,6.9,-,N/A,,Overcast,290,2013-03-29 05:51:00
2:51 AM,35.1,25.0,67,30.17,10.0,WSW,5.8,-,N/A,,Clear,250,2013-03-29 06:51:00
3:51 AM,37.0,25.0,62,30.16,10.0,West,6.9,-,N/A,,Clear,270,2013-03-29 07:51:00
4:51 AM,30.0,23.0,75,30.17,10.0,SW,4.6,-,N/A,,Clear,230,2013-03-29 08:51:00
5:51 AM,30.9,24.1,76,30.17,10.0,SW,3.5,-,N/A,,Clear,220,2013-03-29 09:51:00
6:51 AM,28.9,23.0,78,30.18,10.0,SW,3.5,-,N/A,,Clear,220,2013-03-29 10:51:00
7:51 AM,34.0,28.0,79,30.18,10.0,SW,4.6,-,N/A,,Clear,220,2013-03-29 11:51:00
8:51 AM,42.1,26.1,53,30.18,10.0,WNW,5.8,-,N/A,,Clear,290,2013-03-29 12:51:00
9:51 AM,46.0,25.0,44,30.18,10.0,NW,8.1,-,N/A,,Clear,310,2013-03-29 13:51:00
10:51 AM,46.9,24.1,41,30.17,10.0,NW,10.4,20.7,N/A,,Partly Cloudy,310,2013-03-29 14:51:00
11:51 AM,48.9,27.0,43,30.17,10.0,NNW,13.8,19.6,N/A,,Overcast,340,2013-03-29 15:51:00
12:51 PM,51.1,27.0,39,30.14,10.0,WNW,11.5,-,N/A,,Overcast,300,2013-03-29 16:51:00
1:51 PM,51.1,27.0,39,30.12,10.0,Variable,6.9,-,N/A,,Overcast,0,2013-03-29 17:51:00
2:51 PM,50.0,27.0,41,30.12,10.0,NNW,13.8,-,N/A,,Overcast,330,2013-03-29 18:51:00
3:51 PM,50.0,28.0,43,30.11,10.0,NW,9.2,-,N/A,,Overcast,310,2013-03-29 19:51:00
4:51 PM,50.0,28.9,44,30.11,10.0,WNW,8.1,-,N/A,,Overcast,300,2013-03-29 20:51:00
5:51 PM,48.9,30.0,48,30.12,10.0,NW,9.2,-,N/A,,Overcast,310,2013-03-29 21:51:00
6:51 PM,48.0,28.9,48,30.12,10.0,WNW,10.4,-,N/A,,Mostly Cloudy,290,2013-03-29 22:51:00
7:51 PM,46.0,28.9,51,30.13,10.0,NW,6.9,-,N/A,,Overcast,320,2013-03-29 23:51:00
8:51 PM,44.1,28.0,53,30.15,10.0,NNW,3.5,-,N/A,,Overcast,340,2013-03-30 00:51:00
9:51 PM,41.0,27.0,57,30.16,10.0,Calm,Calm,-,N/A,,Clear,0,2013-03-30 01:51:00
10:51 PM,37.9,26.1,62,30.17,10.0,Calm,Calm,-,N/A,,Clear,0,2013-03-30 02:51:00
11:51 PM,34.0,26.1,73,30.17,10.0,WNW,3.5,-,N/A,,Clear,300,2013-03-30 03:51:00